Regional Weather Roundup
Issued by NWS

Home | Current Version | Previous Version | Graphics & Text | Print | Product List | Glossary On
Versions: 1 2 3 4 5 6 7 8 9 10 11 12 13 14 15 16 17 18 19 20 21 22 23 24 25 26 27 28 29 30 31 32 33 34 35 36 37 38 39 40 41 42 43 44 45 46 47 48 49 50
000
ASUS43 KTOP 191259
RWRKS

WEATHER ROUNDUP FOR KANSAS
NATIONAL WEATHER SERVICE GOODLAND KS
700 AM CST FRI DEC 19 2014

NOTE:  "FAIR" INDICATES FEW OR NO CLOUDS BELOW 12,000 FEET WITH NO
SIGNIFICANT WEATHER AND/OR OBSTRUCTIONS TO VISIBILITY.

KSZ001>006-013>018-027>032-041>047-191400-
NORTHWEST KANSAS

CITY           SKY/WX    TMP DP  RH WIND       PRES   REMARKS
GOODLAND       CLEAR     25  21  85 W8        30.09R
HAYS           CLOUDY    34  25  69 CALM      30.15S
HILL CITY      CLOUDY    32  30  92 W6        30.14S FOG
RUSSELL        CLOUDY    31  30  96 S6        30.15R FOG
$$

KSZ061>065-074>080-084>089-191400-
SOUTHWEST KANSAS

CITY           SKY/WX    TMP DP  RH WIND       PRES   REMARKS
DODGE CITY     CLOUDY    33  31  92 SW5       30.14R FOG
ELKHART          N/A     30  26  85 SW5         N/A
GARDEN CITY    CLOUDY    30  30 100 W5        30.12S FOG
GREAT BEND     CLOUDY    30  27  86 CALM      30.17S
LIBERAL        CLOUDY    36  32  87 S3        30.14S
$$

KSZ066>073-081>083-090>101-191400-
SOUTHEAST KANSAS

CITY           SKY/WX    TMP DP  RH WIND       PRES   REMARKS
CHANUTE        CLOUDY    33  32  96 NE7       30.24R FOG
COFFEYVILLE    CLOUDY    36  33  89 CALM      30.26R
HUTCHINSON     CLOUDY    31  28  89 E3        30.19S FOG
MEDICINE LODGE   N/A     33  32  96 S5        30.20R
NEWTON         CLOUDY    28  23  80 E5        30.21R
PARSONS        CLOUDY    35  34  96 CALM      30.27R FOG
WICHITA INTL   CLOUDY    32  28  85 E5        30.22R
WICHITA JABRA  CLOUDY    29  28  96 NE5       30.21R
WICHITA MCCONL CLOUDY    30  28  93 SE6       30.23R
WINFIELD       CLOUDY    32  30  92 E6        30.26R
$$

KSZ007>012-019>026-033>040-048>060-102>105-191400-
NORTHEAST KANSAS

CITY           SKY/WX    TMP DP  RH WIND       PRES   REMARKS
CONCORDIA      CLOUDY    29  28  96 E5        30.18S FOG
EMPORIA        CLOUDY    28  27  96 N6        30.23R
LAWRENCE       CLOUDY    31  28  89 NE7       30.25S
MANHATTAN      CLOUDY    30  29  96 CALM      30.23S
OLATHE IND     CLOUDY    30  29  96 CALM      30.25R FOG
OLATHE EXE     CLOUDY    31  29  92 VRB5      30.23R
SALINA         FOG       30  28  92 E6        30.21S VSB 3/4
TOPEKA BILLARD CLOUDY    30  28  92 W3        30.25S
TOPEKA FORBES  CLOUDY    30  28  92 N5        30.23F FOG
$$


USA.gov is the U.S. government's official web portal to all federal, state and local government web resources and services.